Tracking 19489 objects as of 22-Jan-2019
HD Live streaming from Space Station
objects crossing your sky now

ESSA 6 (TOS-D)

Track ESSA 6 (TOS-D) now!
10-day predictions
ESSA 6 (TOS-D) is classified as:


NORAD ID: 3035
Int'l Code: 1967-114A
Perigee: 1,416.0 km
Apogee: 1,492.1 km
Inclination: 102.3 °
Period: 114.8 minutes
Semi major axis: 7825 km
RCS: 0.8501 m2 (medium)
Launch date: November 10, 1967
Source: United States (US)
Launch site: AIR FORCE WESTERN TEST RANGE (AFWTR)
aabbcc
Your satellite tracking list
Your tracking list is empty




NASA's NSSDC Master Catalog

Two Line Element Set (TLE):
1  3035U 67114A   19022.88556431 -.00000052  00000-0 -24926-4 0  9990
2  3035 102.2537  33.5728 0048630 218.3874 211.2154 12.54218186344268
Source of the keplerian elements: AFSPC